Wind_Speed
10 10 10 9 9 8 8 8 8 8 8 8 8 7 7 7 7 7 7 7 7 7 7 7 6 6 7 7 7 7 7 7 7 7 7 8 9 9 9 9 9 9 9 9
11 11 11 10 10 9 9 9 9 9 9 9 9 9 8 8 8 7 8 8 8 8 8 8 7 7 7 7 8 8 8 9 9 8 9 10 10 10 10 10 10 10 10 9
12 12 11 11 10 10 9 9 10 9 9 10 10 10 10 10 9 8 8 8 9 9 9 9 9 9 9 9 8 9 9 9 10 10 11 11 11 11 11 11 12 11 11 10
12 11 11 11 11 10 10 10 10 10 10 10 10 11 10 10 9 9 9 9 9 10 10 10 10 10 10 10 10 10 10 11 11 12 12 12 12 12 12 13 13 12 11 11
12 12 12 11 11 10 10 10 10 10 11 11 11 11 11 11 11 10 10 10 10 11 11 11 11 11 11 12 12 12 12 12 12 12 12 12 13 13 13 14 14 13 12 12
12 13 12 11 11 10 11 11 10 11 11 12 11 12 11 11 11 11 10 11 11 11 12 12 12 12 12 13 13 13 14 13 13 13 13 13 13 13 14 14 14 14 13 13
12 13 13 12 11 11 11 11 11 11 12 13 12 13 12 11 12 12 12 12 12 13 13 13 13 13 14 14 15 15 15 15 15 15 15 15 15 14 14 14 15 14 14 14
13 14 14 13 12 12 12 12 12 13 13 13 13 14 13 12 12 13 13 13 13 14 14 14 14 15 15 15 16 16 16 16 16 16 16 16 16 15 15 15 15 15 16 16
15 15 14 14 13 13 13 13 12 13 13 13 14 14 13 12 13 14 14 14 15 15 15 15 16 15 16 16 17 17 17 16 17 17 17 17 17 17 17 17 17 17 16 16
16 16 16 15 15 14 14 13 13 13 14 14 15 14 13 13 13 14 14 15 15 15 15 16 16 16 17 17 17 18 17 18 18 18 18 18 18 18 18 18 18 18 18 17
17 16 17 17 16 15 15 14 14 15 15 15 15 16 14 14 14 14 15 15 16 16 16 16 17 18 18 18 18 18 18 18 18 19 19 19 19 20 19 19 20 19 19 19
17 17 18 18 17 16 16 16 16 16 16 15 16 16 15 15 15 15 15 16 16 17 17 18 18 19 19 19 19 19 19 19 19 19 20 21 21 21 21 21 21 21 20 20
18 18 18 18 18 17 17 16 16 16 17 17 17 17 16 16 16 16 16 16 17 18 18 19 20 20 20 20 21 20 20 20 20 21 21 22 22 22 23 22 22 22 21 21
19 18 18 18 19 19 18 18 17 17 18 18 18 18 18 17 16 17 17 18 18 19 20 20 21 21 21 21 21 21 21 21 22 22 22 23 23 23 24 24 24 23 23 23
21 20 19 19 20 20 20 19 19 19 19 19 19 19 19 18 18 18 19 19 19 20 20 21 22 22 22 22 22 22 23 23 23 23 23 23 24 24 25 24 24 24 24 24
21 21 21 20 21 21 21 20 19 19 20 20 20 19 19 19 19 19 19 19 20 20 21 22 22 22 23 24 24 24 24 23 24 24 24 24 24 24 24 24 24 24 25 25
23 22 23 23 22 22 21 20 21 19 20 20 20 19 19 19 20 20 20 20 20 21 22 22 22 23 23 24 24 25 24 24 25 25 25 25 25 25 25 24 25 25 25 26
24 24 24 24 24 24 22 21 21 21 20 20 20 20 19 20 20 20 20 20 20 21 22 22 23 23 24 24 25 26 26 26 26 26 26 26 26 26 26 26 26 25 25 26
24 25 25 25 25 24 23 22 22 22 20 20 20 20 20 21 21 20 20 20 20 21 21 22 23 23 24 24 25 25 25 26 26 27 27 27 27 27 27 27 26 26 27 27
25 25 26 26 26 25 23 22 22 23 22 22 21 21 21 21 21 21 21 21 21 22 22 22 22 23 24 25 25 25 26 27 27 27 27 27 27 27 27 27 27 27 28 28
27 27 27 26 27 25 24 22 23 23 23 23 23 22 22 22 21 21 21 21 22 22 23 23 23 24 25 25 26 26 26 27 27 27 27 28 29 29 28 28 27 27 27 28
29 29 28 27 27 25 24 23 23 23 24 23 23 23 23 23 22 22 22 22 22 23 24 24 24 25 25 26 26 27 27 27 28 28 28 29 29 29 29 28 28 28 28 27
30 30 29 29 28 26 25 25 25 24 24 24 23 23 23 23 23 23 23 23 23 23 24 25 25 26 26 26 26 27 28 28 28 29 29 30 30 29 30 29 29 28 28 28
31 30 30 30 29 28 28 27 27 26 25 24 24 24 24 24 24 24 24 24 24 24 25 25 25 26 27 27 27 28 29 29 29 29 30 30 30 30 30 30 30 30 30 30
31 31 30 30 29 29 29 29 28 28 27 26 26 25 25 25 24 25 25 26 26 26 27 26 26 27 27 28 28 29 30 30 30 29 30 31 31 31 31 31 31 31 31 31
32 32 32 31 30 30 30 30 30 29 28 27 26 26 26 26 26 26 26 27 28 28 28 28 28 29 29 30 31 31 31 32 32 32 31 31 31 31 32 33 32 31 31 31
Wind_Direction
260 260 260 262 263 263 259 257 258 258 256 256 255 255 258 259 258 262 266 271 277 279 278 274 275 281 286 289 290 291 292 293 294 296 296 295 297 299 301 301 300 301 297 292
258 258 260 261 261 259 255 256 257 256 254 254 256 255 254 255 258 258 261 264 271 276 277 275 276 279 283 287 287 287 287 287 290 295 298 297 296 298 299 301 302 301 298 294
255 257 258 257 258 258 253 253 255 255 254 255 258 259 256 258 258 257 258 262 267 272 276 275 274 279 282 282 284 286 286 287 291 298 299 298 296 295 296 295 297 297 297 293
251 252 253 253 254 255 253 253 254 255 254 254 257 259 258 258 257 257 255 258 263 268 274 276 276 277 279 279 280 284 287 289 293 296 295 297 298 297 296 295 296 295 293 290
250 248 249 249 249 251 252 253 253 253 254 255 255 257 257 256 257 258 257 257 261 265 270 273 275 276 277 277 279 281 285 288 292 294 293 294 295 295 294 292 291 293 292 290
251 249 247 247 248 250 252 253 253 252 252 253 254 255 256 256 257 258 262 263 262 263 266 271 274 276 277 279 281 282 284 287 290 293 295 295 295 294 293 290 289 289 289 289
252 249 245 245 248 250 251 252 255 257 253 254 253 254 258 258 257 259 262 267 265 267 268 272 274 275 277 280 282 284 285 287 288 292 293 293 295 294 293 292 290 289 289 288
251 249 245 245 248 251 251 250 252 256 258 259 257 256 260 260 259 260 262 267 269 270 269 269 271 274 277 281 284 285 287 288 287 287 289 290 292 292 293 291 290 288 288 288
250 251 248 247 248 250 252 251 253 257 258 260 261 261 264 264 262 261 263 269 271 272 272 269 270 272 274 278 282 285 286 287 287 287 287 287 288 289 291 290 289 289 290 289
251 255 251 249 250 251 252 253 252 254 258 260 264 265 267 269 268 267 269 272 274 276 276 274 273 274 275 278 281 284 285 286 286 288 289 288 288 289 290 288 288 289 290 290
252 255 255 250 250 252 252 251 252 255 257 262 267 270 270 271 271 271 271 272 275 275 276 276 275 278 278 280 282 283 284 285 287 288 288 287 287 287 288 286 286 287 287 287
250 253 253 252 250 251 252 252 253 255 259 262 266 271 274 273 273 273 275 273 272 273 274 276 277 279 280 280 281 281 283 284 288 290 290 288 289 288 287 287 286 285 286 285
248 251 252 252 250 250 250 252 255 258 259 262 266 272 275 276 275 276 277 276 273 272 274 275 276 278 279 281 281 281 283 285 288 289 290 291 290 289 289 288 286 284 285 284
248 250 251 251 252 250 250 252 255 259 260 264 268 271 275 277 278 277 276 276 276 274 274 275 276 277 279 281 281 280 282 285 287 288 289 290 290 290 288 288 285 283 283 283
248 248 250 249 250 249 252 255 257 259 261 266 269 271 274 276 278 278 278 276 275 275 275 275 275 277 277 279 279 279 282 284 286 288 288 288 289 290 289 288 286 285 283 282
249 248 249 250 251 252 254 256 261 262 264 267 270 272 272 274 277 279 279 278 277 276 276 276 274 275 276 277 277 278 281 283 286 287 289 290 290 289 289 288 287 286 284 282
249 251 252 253 252 253 255 259 261 264 266 269 272 273 271 274 278 279 278 278 279 279 278 277 276 275 275 276 277 278 281 283 286 288 289 290 290 290 289 287 287 287 287 284
250 251 254 257 256 255 258 260 263 265 268 269 273 273 272 275 277 278 278 278 279 279 279 277 276 275 276 277 279 279 280 283 285 287 288 289 289 289 289 288 287 288 287 286
250 252 253 256 258 259 259 262 264 266 269 272 273 273 274 275 276 277 278 278 280 282 281 279 278 277 277 278 280 281 280 283 286 286 286 287 288 289 290 289 287 288 287 287
249 251 254 256 259 260 262 262 264 267 270 273 275 276 276 277 276 277 278 277 279 281 281 280 279 279 279 280 281 282 282 284 286 287 286 286 287 288 288 289 287 287 287 286
249 251 253 255 258 260 262 264 265 266 270 273 275 276 276 277 278 277 277 277 279 280 281 280 279 279 280 281 282 284 285 286 286 287 287 287 287 287 288 289 288 288 287 286
252 253 253 255 256 258 259 261 264 266 268 272 274 276 277 277 277 277 277 279 279 280 281 281 280 280 282 282 283 285 284 285 286 287 288 287 287 287 288 288 287 286 285 285
252 253 254 255 257 258 258 259 262 264 266 269 271 273 275 276 276 276 277 279 280 280 281 282 281 282 283 284 285 284 284 284 284 285 286 287 287 287 287 286 286 285 285 285
253 253 254 255 256 257 257 259 261 264 266 267 269 271 274 275 276 278 278 279 280 282 283 283 283 284 284 284 285 284 284 285 285 285 286 287 286 286 286 286 286 285 285 284
251 253 255 256 257 258 257 259 261 264 265 267 268 271 273 274 275 277 279 280 281 282 283 285 285 284 285 285 285 286 286 286 286 287 287 287 288 286 285 285 286 285 284 283
250 252 254 257 257 258 259 260 261 263 265 267 268 270 271 273 274 277 279 281 282 282 283 284 285 285 284 283 284 285 286 286 286 286 286 287 288 286 285 285 285 285 283 282
Height
5856 5857 5857 5858 5858 5859 5859 5859 5859 5859 5859 5859 5859 5859 5859 5859 5859 5859 5859 5859 5858 5858 5858 5857 5857 5857 5856 5855 5855 5854 5854 5853 5852 5851 5850 5849 5848 5847 5845 5844 5843 5841 5840 5839
5853 5853 5854 5855 5855 5855 5856 5856 5857 5857 5857 5857 5857 5857 5857 5857 5857 5857 5857 5857 5857 5856 5856 5856 5855 5855 5854 5854 5853 5852 5852 5851 5850 5849 5848 5847 5846 5844 5843 5841 5840 5839 5837 5836
5849 5851 5851 5851 5852 5852 5853 5854 5854 5854 5854 5854 5855 5855 5855 5855 5855 5855 5855 5855 5855 5855 5854 5854 5853 5853 5852 5852 5851 5850 5850 5849 5848 5847 5846 5844 5843 5842 5840 5839 5837 5836 5834 5833
5845 5846 5847 5848 5849 5849 5850 5851 5851 5852 5852 5852 5853 5853 5853 5852 5853 5853 5853 5853 5852 5852 5852 5852 5851 5851 5850 5850 5849 5848 5847 5847 5845 5844 5843 5842 5840 5839 5837 5836 5834 5833 5831 5830
5842 5843 5843 5844 5846 5846 5847 5848 5848 5849 5849 5849 5850 5850 5851 5850 5850 5850 5850 5850 5850 5850 5850 5849 5849 5848 5848 5847 5846 5846 5845 5844 5843 5841 5840 5839 5837 5836 5834 5833 5831 5830 5828 5827
5838 5839 5840 5841 5842 5843 5843 5844 5845 5845 5846 5846 5847 5847 5847 5847 5847 5847 5847 5847 5847 5847 5847 5847 5846 5845 5845 5844 5844 5843 5842 5841 5840 5838 5837 5835 5834 5832 5831 5829 5828 5827 5825 5824
5834 5835 5836 5837 5838 5839 5840 5842 5842 5842 5842 5843 5844 5843 5844 5844 5844 5844 5844 5844 5844 5844 5844 5843 5843 5842 5842 5841 5840 5840 5839 5837 5836 5835 5833 5832 5830 5829 5827 5825 5824 5823 5821 5820
5831 5832 5833 5834 5835 5835 5836 5838 5839 5840 5840 5840 5840 5839 5841 5841 5840 5840 5840 5840 5840 5840 5840 5840 5839 5839 5838 5837 5837 5836 5835 5834 5832 5831 5830 5828 5826 5825 5823 5822 5820 5819 5817 5816
5827 5828 5829 5830 5830 5832 5833 5833 5835 5836 5836 5836 5836 5836 5837 5837 5837 5837 5837 5837 5836 5836 5836 5835 5835 5835 5834 5833 5832 5832 5831 5829 5828 5827 5825 5824 5822 5821 5819 5817 5816 5814 5813 5811
5822 5823 5824 5825 5826 5827 5829 5830 5831 5831 5831 5832 5832 5833 5834 5833 5833 5833 5833 5832 5832 5832 5831 5831 5830 5830 5829 5829 5828 5827 5826 5825 5823 5822 5821 5819 5818 5816 5815 5813 5811 5810 5808 5807
5817 5819 5820 5821 5822 5823 5824 5825 5826 5826 5827 5828 5828 5831 5829 5829 5828 5828 5828 5828 5827 5827 5827 5826 5826 5825 5825 5824 5823 5822 5821 5820 5819 5817 5816 5814 5813 5811 5810 5808 5806 5805 5803 5801
5812 5813 5814 5816 5817 5818 5819 5820 5821 5822 5823 5823 5824 5827 5824 5824 5824 5823 5823 5823 5822 5822 5822 5821 5821 5820 5819 5819 5818 5817 5816 5815 5814 5812 5811 5809 5807 5806 5804 5803 5801 5799 5798 5796
5807 5808 5810 5811 5814 5814 5814 5815 5816 5817 5818 5818 5819 5822 5819 5819 5818 5818 5818 5817 5817 5817 5816 5816 5815 5815 5814 5813 5812 5811 5810 5809 5808 5807 5805 5803 5802 5800 5798 5796 5795 5793 5792 5790
5801 5803 5805 5807 5807 5808 5809 5810 5811 5812 5812 5813 5814 5815 5814 5814 5813 5813 5812 5812 5811 5811 5811 5810 5810 5809 5808 5808 5807 5806 5805 5804 5802 5801 5799 5797 5796 5794 5792 5790 5788 5787 5785 5784
5795 5797 5799 5800 5801 5802 5804 5805 5806 5806 5807 5808 5809 5809 5809 5808 5808 5807 5807 5806 5805 5805 5804 5804 5803 5803 5802 5802 5801 5800 5799 5798 5796 5795 5793 5791 5789 5788 5786 5783 5782 5780 5779 5777
5790 5792 5793 5795 5796 5796 5798 5799 5800 5801 5801 5802 5802 5803 5802 5802 5801 5801 5800 5799 5799 5799 5798 5797 5797 5797 5796 5795 5794 5793 5792 5791 5790 5788 5786 5784 5783 5781 5779 5777 5775 5773 5772 5770
5784 5786 5788 5789 5790 5790 5792 5794 5794 5795 5795 5796 5796 5798 5796 5796 5795 5795 5794 5793 5793 5792 5791 5791 5790 5790 5789 5788 5787 5787 5786 5784 5783 5781 5779 5778 5776 5774 5772 5770 5768 5766 5764 5763
5779 5780 5781 5782 5784 5785 5789 5788 5788 5789 5789 5790 5790 5790 5790 5789 5789 5788 5788 5787 5787 5786 5785 5784 5783 5783 5782 5781 5780 5779 5778 5777 5776 5774 5772 5770 5768 5766 5765 5763 5761 5759 5757 5755
5772 5773 5774 5776 5776 5778 5781 5782 5782 5782 5783 5783 5783 5783 5783 5783 5782 5782 5782 5781 5780 5779 5778 5778 5777 5776 5775 5774 5773 5772 5771 5770 5768 5766 5764 5763 5761 5759 5757 5755 5753 5751 5749 5747
5765 5766 5768 5769 5770 5772 5775 5775 5775 5776 5776 5777 5776 5776 5776 5776 5776 5776 5775 5774 5774 5773 5772 5771 5770 5769 5768 5767 5766 5765 5763 5762 5760 5759 5757 5755 5753 5751 5749 5747 5745 5743 5741 5739
5757 5759 5760 5761 5762 5765 5768 5768 5769 5771 5771 5770 5769 5769 5769 5769 5769 5769 5768 5767 5767 5766 5765 5764 5763 5762 5761 5760 5759 5757 5756 5754 5752 5751 5749 5747 5745 5743 5741 5739 5737 5735 5733 5731
5749 5751 5753 5755 5756 5760 5760 5761 5762 5762 5762 5762 5762 5762 5762 5762 5761 5761 5761 5760 5759 5758 5757 5756 5755 5754 5753 5752 5751 5749 5748 5746 5744 5742 5741 5739 5737 5735 5733 5731 5729 5726 5724 5722
5741 5744 5746 5748 5751 5751 5752 5753 5753 5754 5755 5755 5755 5755 5755 5754 5754 5753 5753 5752 5752 5751 5750 5748 5747 5746 5745 5744 5742 5741 5739 5737 5736 5734 5732 5730 5728 5726 5724 5722 5720 5718 5716 5714
5732 5734 5736 5739 5741 5742 5743 5744 5745 5746 5746 5747 5747 5747 5747 5746 5746 5746 5745 5745 5744 5743 5742 5740 5739 5738 5737 5735 5734 5732 5731 5729 5727 5725 5723 5721 5719 5717 5715 5713 5710 5708 5706 5705
5723 5725 5727 5729 5732 5733 5734 5735 5737 5738 5738 5738 5739 5739 5739 5738 5738 5737 5737 5736 5735 5734 5733 5732 5731 5729 5728 5727 5725 5724 5722 5720 5718 5716 5714 5712 5710 5708 5705 5703 5701 5699 5697 5695
5713 5715 5718 5720 5723 5724 5726 5727 5728 5729 5729 5730 5730 5730 5730 5730 5729 5729 5728 5727 5726 5725 5724 5723 5722 5720 5719 5717 5716 5714 5712 5710 5708 5706 5704 5702 5700 5698 5695 5693 5691 5688 5686 5685